UNICORN-2O

导读

**UNICORN-2O卫星**是德国于2025年3月15日发射的独角兽系列卫星。作为航天技术试验任务,它承担着新型航天技术在轨验证使命,承载着德国航天领域创新探索方向。截至2026年3月已入轨运行满一年,目前正在轨道开展既定测试工作,为后续同类型卫星技术迭代积累宝贵空间数据。

Basic Information
目录编号:
63980
目录名称:
UNICORN-2O
国际标识:
2025-052BS
轨道中心:
EARTH
卫星名称:
UNICORN-2O
卫星全名:
UNICORN-2O
卫星状态:
已陨落 最后检测时间 2026-02-15
发射日期:
2025-03-15 UTC
国别 :
德国 (DE)
星等 :
--
Orbit Information
数据来源 国际轨道数据
星历时间: 2026-02-15T13:32:08+0800
轨道信息已过期202天
半长轴: 6603.042km
偏心率: 0.000914
轨道倾角: 97.369°
近地点辐角 143.605°
升交点赤经 306.545°
平近点角 216.586°
近地点: 218.869km
远地点: 230.941km
周期: 88.997分钟
每日圈数: 16.180304
Detailed Information
使用方式:
暂无